Showing default

TECHEDSAT-11, 60208

Orbit data source: Space-Track

TECHEDSAT-11, 60208 is an American payload satellite in SSO that was launched on Thu, 04 Jul 2024 UTC via an FIREFLY ALPHA launch vehicle from the Air Force Western Test Range (AFWTR). Payload-class satellites include a variety of spacecraft equipped with specific instruments for various scientific and technological missions. These include communications satellites like Starlink; space stations such as the ISS; scientific satellites like the Hubble; Earth observation satellites from companies like Planet Labs, Umbra, and HawkEye 360; GPS; miniature CubeSats for education and research; and military/defense satellites.

Loading next visibility...
Identifier
60208, 2024-125F
Orbit
SSO
Last TLE update
12 hours ago
Origin
Manufacturer
ARC
Mission
Operational spacecraft
Bus & Motor
CUBESAT 6UXL, Unknown motor
Mass
10 kg wet, ~10 kg dry
Launch date (UTC)
2024-07-04 (1 year ago)
Launch vehicle
FIREFLY ALPHA
Launch site
Air Force Western Test Range (AFWTR)
Object type
Payload
Rocket body
Debris
Shape & HBR
Unknown
Radar Cross Section
Small (<0.1 m²)

Expand to show TLE details & history

TLE from 12 hours ago
0 TECHEDSAT-11
1 60208U 24125F   25199.49957620  .00009256  00000-0  28691-3 0  9999
2 60208  97.2783  49.8760 0020378 359.4359   0.6857 15.33440097 57886
Epoch: 2025-07-18T11:59Z
TLE epoch observation values (Epoch: 2025-07-18T11:59:23.383Z)
Latitude
-0.00005°
Longitude
-66.52158°
Altitude
454.722 km
Speed
7.647 km/s
True Right ascension
03h 19m 30s
True Declination
0° 00' 00"
Sunlit
Object was in daylight at epoch
Visualization orbit readout
Latitude
31.52765°
Longitude
118.42357°
Altitude
481.831 km
Speed
7.621 km/s
Apparent Right ascension
19h 17m 15s
Apparent Declination
-6° 19' 24"
Sunlit
Object is in daylight
Visualization observer readout
Local Sidereal Time
12:23:25
Azimuth
86.214° E
Elevation
-14.365°
Doppler factor
1
Orbital elements
Apogee altitude
476.44 km
Perigee altitude
448.56 km
Semi-major axis
6,840.637 km
Eccentricity
0.00204
Inclination
97.2783°
RAAN
49.876°
Arg. of periapsis
359.4359°
True anomaly
0.6885°
Mean anomaly
0.6857°
Eccentric anomaly
0.6871°
Mean motion
3.83617 °/min
Orbital period
93.84 mins
BSTAR
0.00028691
Loading maneuver chart data...
Loading SW <> Apogee altitude chart data...
Loading historical data...
Loading historical data...
Loading historical data...
Loading historical data...
Loading historical data...
Loading historical data...
Loading historical data...
|